This is the latest recevied weather packets stored in our database for station/object W7TRD. If no packets are shown the sender has not sent any weather packets the latest 10 day(s).
| Time | Temp. | Humidity | Pressure | Rain* | Wind** | Luminosity | Snow |
|---|---|---|---|---|---|---|---|
| 1788536746 | 12.22° C | 96% | 1013.7 hPa | 0 mm | - | 54 W/m² | - |
| 1788536427 | 12.22° C | 96% | 1013.6 hPa | 0 mm | - | 39 W/m² | - |
| 1788536126 | 12.22° C | 96% | 1013.7 hPa | 0 mm | - | 34 W/m² | - |
| 1788535823 | 12.22° C | 96% | 1013.6 hPa | 0 mm | - | 37 W/m² | - |
| 1788535518 | 12.22° C | 96% | 1013.7 hPa | 0 mm | - | 38 W/m² | - |
| 1788535222 | 12.22° C | 96% | 1013.6 hPa | 0 mm | - | 38 W/m² | - |
| 1788534909 | 11.67° C | 96% | 1013.6 hPa | 0 mm | - | 38 W/m² | - |
| 1788534609 | 12.22° C | 97% | 1013.6 hPa | 0 mm | - | 37 W/m² | - |
| 1788534303 | 12.22° C | 97% | 1013.4 hPa | 0 mm | - | 40 W/m² | - |
| 1788534002 | 12.22° C | 97% | 1013.4 hPa | 0 mm | - | 40 W/m² | - |
| 1788533698 | 12.22° C | 98% | 1013.4 hPa | 0 mm | - | 41 W/m² | - |
| 1788533393 | 11.67° C | 98% | 1013.3 hPa | 0 mm | - | 38 W/m² | - |
| 1788533089 | 11.67° C | 98% | 1013.2 hPa | 0 mm | - | 36 W/m² | - |
| 1788532784 | 11.67° C | 98% | 1013.3 hPa | 0 mm | - | 31 W/m² | - |
| 1788532480 | 11.67° C | 98% | 1012.9 hPa | 0 mm | - | 31 W/m² | - |
| 1788532177 | 11.67° C | 98% | 1013 hPa | 0 mm | - | 28 W/m² | - |
| 1788531873 | 11.67° C | 98% | 1013 hPa | 0 mm | - | 21 W/m² | - |
| 1788531573 | 11.67° C | 98% | 1013 hPa | 0 mm | - | 10 W/m² | - |
| 1788531268 | 11.67° C | 98% | 1013.2 hPa | 0 mm | - | 11 W/m² | - |
| 1788530964 | 11.67° C | 98% | 1012.9 hPa | 0 mm | - | 10 W/m² | - |
| 1788530664 | 11.67° C | 98% | 1013 hPa | 0 mm | - | 9 W/m² | - |
| 1788530363 | 11.67° C | 98% | 1013.1 hPa | 0 mm | - | 8 W/m² | - |
| 1788530063 | 11.67° C | 98% | 1013.1 hPa | 0 mm | - | 6 W/m² | - |
| 1788529760 | 11.67° C | 98% | 1013.1 hPa | 0 mm | - | 3 W/m² | - |
| 1788529459 | 11.67° C | 98% | 1013 hPa | 0 mm | - | 2 W/m² | - |
* Rain latest hour (hover to see other rain measurements)
** Current wind speed in m/s (hover to see current wind gust speed)